Powrót do katalogu

STARLINK-34967

AktywnyŁącznośćSSO
NORAD 65177·PAYLOAD·🇺🇸 United States

Wystrzelony Aug 14, 2025 z Vandenberg Space Force Base

Loading…

Następne Przeloty (najbliższe 24 godziny)

TLE

ŚwieżeSource: CelesTrak SupGP

Epoka: Sep 15, 2026, 03:55 UTC

1 65177C 25175D   26258.16368056 -.00025582  00000+0 -79389-3 0  2584
2 65177  97.2843 127.2406 0002044  90.3589  17.2776 15.33460773    17

Śledź STARLINK-34967 w czasie rzeczywistym z AllMySat

Download on the App Store